Monticello, NY

4:25 AM EDT on March 28, 2017 (GMT -0400)
Sullivan County International

Weather History for KMSV - January, 2009

Change the Weather History Date:

Thursday, January 1, 2009

  Actual Average Record
Temperature  
Mean Temperature 11 °F -  
Max Temperature 17 °F 31 °F 55 °F (2011)
Min Temperature 5 °F 18 °F 0 °F (1997)
Degree Days  
Heating Degree Days 54    
Moisture  
Dew Point -1 °F    
Average Humidity 60    
Maximum Humidity 72    
Minimum Humidity 42    
Precipitation  
Precipitation 0.00 in - - ()
Snow  
Snow 0.00 in - - ()
Snow Depth 3.00 in    
Sea Level Pressure  
Sea Level Pressure 30.12 in    
Wind  
Wind Speed 17 mph (NW)    
Max Wind Speed 26 mph    
Max Gust Speed 40 mph    
Visibility 10 miles    
Events      
Averages and records for this station are not official NWS values.
T = Trace of Precipitation, MM = Missing Value Source: NWS Daily Summary

Daily Weather History Graph

Daily Weather History Graph

Search for Another Location

Airport or City:

Trip Planner

Search our weather history database for the weather conditions in past years. The results will help you decide how hot, cold, wet, or windy it might be!

Date:

Astronomy

Jan. 01, 2009 Rise Set
Actual Time 7:26 AM EST 4:39 PM EST
Civil Twilight 6:54 AM EST 5:11 PM EST
Nautical Twilight 6:20 AM EST 5:45 PM EST
Astronomical Twilight 5:46 AM EST 6:19 PM EST
Moon 10:10 AM EST (1/1) 9:52 PM EST (1/1)
Length of Visible Light 10h 16m
Length of Day
9h 13m
Waxing Crescent, 23% of the Moon is Illuminated
Jan 1
Waxing Crescent
Jan 4
First Quarter
Jan 10
Full
Jan 17
Last Quarter
Jan 26
New

Hourly Weather History & Observations

Time (EST) Temp. Windchill Dew Point Humidity Pressure Visibility Wind Dir Wind Speed Gust Speed Precip Events Conditions
12:15 AM 8.6 °F -11.9 °F -0.4 °F 67% 29.93 in 8.0 mi NNW 23.0 mph 28.8 mph N/A   Overcast
12:35 AM 8.6 °F -8.9 °F -0.4 °F 67% 29.93 in 10.0 mi NW 16.1 mph 26.5 mph N/A   Overcast
12:55 AM 6.8 °F -10.0 °F -0.4 °F 72% 29.94 in 10.0 mi NW 13.8 mph 29.9 mph N/A   Scattered Clouds
1:15 AM 6.8 °F -12.9 °F -0.4 °F 72% 29.94 in 10.0 mi NW 19.6 mph 25.3 mph N/A   Mostly Cloudy
1:35 AM 6.8 °F -11.3 °F -0.4 °F 72% 29.95 in 10.0 mi NW 16.1 mph 28.8 mph N/A   Mostly Cloudy
1:55 AM 6.8 °F -11.8 °F -0.4 °F 72% 29.96 in 10.0 mi NW 17.3 mph 25.3 mph N/A   Partly Cloudy
2:15 AM 6.8 °F -12.9 °F -0.4 °F 72% 29.97 in 10.0 mi NW 19.6 mph 33.4 mph N/A   Clear
2:35 AM 6.8 °F -13.4 °F -0.4 °F 72% 29.99 in 10.0 mi NW 20.7 mph 25.3 mph N/A   Clear
3:15 AM 6.8 °F -13.4 °F -0.4 °F 72% 30.00 in 10.0 mi NW 20.7 mph 34.5 mph N/A   Overcast
3:35 AM 6.8 °F -14.3 °F -0.4 °F 72% 30.01 in 9.0 mi NW 23.0 mph 34.5 mph N/A   Overcast
3:55 AM 6.8 °F -13.8 °F -2.2 °F 67% 30.02 in 10.0 mi NW 21.9 mph 29.9 mph N/A   Overcast
4:15 AM 6.8 °F -12.9 °F -0.4 °F 72% 30.03 in 9.0 mi NW 19.6 mph 32.2 mph N/A   Overcast
4:35 AM 6.8 °F -13.4 °F -2.2 °F 67% 30.03 in 10.0 mi NW 20.7 mph 34.5 mph N/A   Mostly Cloudy
4:55 AM 6.8 °F -15.5 °F -0.4 °F 72% 30.04 in 5.0 mi NW 26.5 mph 40.3 mph N/A   Overcast
5:15 AM 6.8 °F -13.4 °F -2.2 °F 67% 30.05 in 9.0 mi NW 20.7 mph 29.9 mph N/A   Overcast
5:35 AM 6.8 °F -11.8 °F -0.4 °F 72% 30.07 in 9.0 mi WNW 17.3 mph 33.4 mph N/A   Overcast
5:55 AM 6.8 °F -11.8 °F -2.2 °F 67% 30.08 in 9.0 mi NW 17.3 mph 36.8 mph N/A   Overcast
6:15 AM 6.8 °F -12.9 °F -2.2 °F 67% 30.08 in 10.0 mi NW 19.6 mph 28.8 mph N/A   Overcast
6:35 AM 6.8 °F -12.4 °F -0.4 °F 72% 30.10 in 10.0 mi NW 18.4 mph 28.8 mph N/A   Mostly Cloudy
6:55 AM 6.8 °F -11.3 °F -2.2 °F 67% 30.11 in 10.0 mi NW 16.1 mph 29.9 mph N/A   Mostly Cloudy
7:15 AM 5.0 °F -13.0 °F -2.2 °F 72% 30.13 in 9.0 mi NW 15.0 mph 27.6 mph N/A   Overcast
7:35 AM 5.0 °F -14.7 °F -2.2 °F 72% 30.14 in 10.0 mi WNW 18.4 mph 28.8 mph N/A   Mostly Cloudy
7:55 AM 5.0 °F -13.0 °F -2.2 °F 72% 30.14 in 10.0 mi NW 15.0 mph 23.0 mph N/A   Partly Cloudy
8:15 AM 6.8 °F -10.7 °F -0.4 °F 72% 30.15 in 10.0 mi NW 15.0 mph 24.2 mph N/A   Clear
8:35 AM 6.8 °F -12.4 °F -0.4 °F 72% 30.16 in 10.0 mi NW 18.4 mph 24.2 mph N/A   Clear
8:55 AM 6.8 °F -11.3 °F -0.4 °F 72% 30.17 in 10.0 mi NW 16.1 mph 28.8 mph N/A   Clear
9:15 AM 8.6 °F -10.5 °F -0.4 °F 67% 30.17 in 10.0 mi NW 19.6 mph 26.5 mph N/A   Clear
9:35 AM 8.6 °F -9.5 °F -0.4 °F 67% 30.18 in 10.0 mi NW 17.3 mph 27.6 mph N/A   Clear
9:55 AM 10.4 °F -10.3 °F -0.4 °F 62% 30.18 in 10.0 mi NW 25.3 mph 35.7 mph N/A   Clear
10:15 AM 10.4 °F -9.1 °F -2.2 °F 57% 30.18 in 10.0 mi NW 21.9 mph 32.2 mph N/A   Clear
10:35 AM 10.4 °F -7.2 °F -2.2 °F 57% 30.18 in 10.0 mi NW 17.3 mph 27.6 mph N/A   Clear
10:55 AM 12.2 °F -6.3 °F -0.4 °F 57% 30.18 in 10.0 mi NW 20.7 mph 26.5 mph N/A   Clear
11:15 AM 12.2 °F -6.3 °F -2.2 °F 53% 30.17 in 10.0 mi NW 20.7 mph 32.2 mph N/A   Clear
11:35 AM 12.2 °F -6.7 °F -0.4 °F 57% 30.17 in 10.0 mi NW 21.9 mph 31.1 mph N/A   Clear
11:55 AM 14.0 °F -0.8 °F -2.2 °F 49% 30.17 in 10.0 mi NW 13.8 mph 26.5 mph N/A   Clear
12:15 PM 14.0 °F -4.3 °F -2.2 °F 49% 30.16 in 10.0 mi NW 21.9 mph 27.6 mph N/A   Clear
12:35 PM 15.8 °F 3.4 °F -0.4 °F 49% 30.16 in 10.0 mi NW 10.4 mph - N/A   Clear
1:15 PM 15.8 °F 2.1 °F -0.4 °F 49% 30.16 in 10.0 mi NW 12.7 mph 18.4 mph N/A   Clear
1:35 PM 17.6 °F 2.2 °F -2.2 °F 42% 30.16 in 10.0 mi WNW 17.3 mph 20.7 mph N/A   Clear
1:55 PM 17.6 °F 3.2 °F -2.2 °F 42% 30.16 in 10.0 mi WNW 15.0 mph 23.0 mph N/A   Clear
2:15 PM 17.6 °F 4.3 °F -2.2 °F 42% 30.15 in 10.0 mi WNW 12.7 mph 16.1 mph N/A   Clear
2:35 PM 17.6 °F 1.7 °F -2.2 °F 42% 30.17 in 10.0 mi NW 18.4 mph 23.0 mph N/A   Clear
2:55 PM 17.6 °F 8.2 °F -2.2 °F 42% 30.18 in 10.0 mi WNW 6.9 mph - N/A   Clear
3:15 PM 17.6 °F 3.7 °F -0.4 °F 45% 30.19 in 10.0 mi WNW 13.8 mph 19.6 mph N/A   Clear
3:35 PM 17.6 °F 5.7 °F -2.2 °F 42% 30.19 in 10.0 mi WNW 10.4 mph - N/A   Clear
3:55 PM 15.8 °F 0.9 °F -2.2 °F 45% 30.19 in 10.0 mi WNW 15.0 mph 19.6 mph N/A   Clear
4:15 PM 15.8 °F 2.7 °F -0.4 °F 49% 30.20 in 10.0 mi WNW 11.5 mph 17.3 mph N/A   Clear
4:35 PM 15.8 °F 4.2 °F -2.2 °F 45% 30.20 in 10.0 mi WNW 9.2 mph - N/A   Clear
4:55 PM 15.8 °F 6.1 °F -0.4 °F 49% 30.19 in 10.0 mi WNW 6.9 mph - N/A   Clear
5:15 PM 14.0 °F 5.1 °F -2.2 °F 49% 30.19 in 10.0 mi WNW 5.8 mph - N/A   Clear
5:35 PM 14.0 °F 0.5 °F -0.4 °F 53% 30.19 in 10.0 mi WNW 11.5 mph - N/A   Clear
5:55 PM 14.0 °F 2.9 °F -2.2 °F 49% 30.19 in 10.0 mi WNW 8.1 mph - N/A   Clear
6:15 PM 12.2 °F 0.7 °F -2.2 °F 53% 30.19 in 10.0 mi NW 8.1 mph - N/A   Clear
6:35 PM 12.2 °F 2.9 °F -2.2 °F 53% 30.19 in 10.0 mi NW 5.8 mph - N/A   Clear
6:55 PM 12.2 °F 1.7 °F -0.4 °F 57% 30.18 in 10.0 mi NW 6.9 mph - N/A   Clear
7:15 PM 12.2 °F 2.9 °F -0.4 °F 57% 30.17 in 10.0 mi NW 5.8 mph - N/A   Clear
7:35 PM 10.4 °F -0.4 °F -0.4 °F 62% 30.17 in 10.0 mi WNW 6.9 mph - N/A   Clear
7:55 PM 10.4 °F 0.8 °F -0.4 °F 62% 30.16 in 10.0 mi NW 5.8 mph - N/A   Clear
8:15 PM 10.4 °F 0.8 °F -2.2 °F 57% 30.16 in 10.0 mi WNW 5.8 mph - N/A   Clear
8:35 PM 10.4 °F 0.8 °F -0.4 °F 62% 30.16 in 10.0 mi WNW 5.8 mph - N/A   Clear
8:55 PM 8.6 °F - -0.4 °F 67% 30.15 in 10.0 mi Calm Calm - N/A   Clear
9:15 PM 10.4 °F 4.0 °F 1.4 °F 67% 30.15 in 10.0 mi West 3.5 mph - N/A   Clear
9:35 PM 10.4 °F 4.0 °F -0.4 °F 62% 30.14 in 10.0 mi WSW 3.5 mph - N/A   Scattered Clouds
9:55 PM 10.4 °F - -0.4 °F 62% 30.14 in 10.0 mi Calm Calm - N/A   Partly Cloudy
10:15 PM 8.6 °F - 1.4 °F 73% 30.13 in 10.0 mi Calm Calm - N/A   Partly Cloudy
10:35 PM 8.6 °F - 1.4 °F 73% 30.12 in 10.0 mi Calm Calm - N/A   Scattered Clouds
10:55 PM 10.4 °F - 1.4 °F 67% 30.12 in 10.0 mi Calm Calm - N/A   Mostly Cloudy
11:15 PM 8.6 °F - 3.2 °F 79% 30.11 in 10.0 mi Calm Calm - N/A   Scattered Clouds
11:35 PM 8.6 °F - 1.4 °F 73% 30.11 in 10.0 mi Calm Calm - N/A   Scattered Clouds
11:55 PM 8.6 °F - 1.4 °F 73% 30.10 in 10.0 mi Calm Calm - N/A   Clear